FW3232 Weather Reports


Display with metric or nautical units.
time (UTC)temp
F
wind
direction
speed
MPH
gust
MPH
rain 1hr
in
rain 24hr
in
rain mn
in
humidity
%
barometer
mb
20260502211911 68 15 5.0 9.0 0.00 0.00 0.00 32 1019.2
20260502211411 68 356 4.0 9.0 0.00 0.00 0.00 33 1019.3
20260502210911 69 349 3.0 10.0 0.00 0.00 0.00 32 1019.3
20260502210412 69 22 4.0 10.0 0.00 0.00 0.00 32 1019.2
20260502205911 69 59 2.0 9.0 0.00 0.00 0.00 32 1019.3
20260502205412 69 33 4.0 8.0 0.00 0.00 0.00 32 1019.4
20260502204911 68 332 5.0 9.0 0.00 0.00 0.00 31 1019.2
20260502204411 68 352 5.0 11.0 0.00 0.00 0.00 31 1019.4
20260502203911 68 344 3.0 13.0 0.00 0.00 0.00 31 1019.5
20260502203412 68 354 5.0 11.0 0.00 0.00 0.00 30 1019.5
20260502202911 68 7 4.0 9.0 0.00 0.00 0.00 32 1019.6
20260502202411 67 38 3.0 10.0 0.00 0.00 0.00 32 1019.6
20260502201911 67 338 6.0 12.0 0.00 0.00 0.00 32 1019.6
20260502201412 67 353 4.0 10.0 0.00 0.00 0.00 33 1019.8
20260502200912 67 16 6.0 13.0 0.00 0.00 0.00 32 1019.8
20260502200411 67 344 7.0 11.0 0.00 0.00 0.00 32 1019.7
20260502195911 67 24 7.0 12.0 0.00 0.00 0.00 32 1019.8
20260502195411 68 10 7.0 11.0 0.00 0.00 0.00 31 1019.8
20260502194911 68 344 4.0 12.0 0.00 0.00 0.00 32 1019.6
20260502194411 67 357 6.0 11.0 0.00 0.00 0.00 34 1019.7
20260502193911 67 336 5.0 13.0 0.00 0.00 0.00 34 1019.7
20260502193411 67 341 6.0 13.0 0.00 0.00 0.00 32 1019.7
20260502192911 67 46 5.0 10.0 0.00 0.00 0.00 34 1019.7
20260502192411 67 25 5.0 13.0 0.00 0.00 0.00 34 1019.8
20260502191912 68 53 6.0 13.0 0.00 0.00 0.00 33 1019.9
20260502191412 67 2 6.0 12.0 0.00 0.00 0.00 33 1019.8
20260502190911 67 64 5.0 12.0 0.00 0.00 0.00 32 1019.9
20260502190411 66 14 5.0 14.0 0.00 0.00 0.00 34 1020.0
20260502185912 67 351 6.0 13.0 0.00 0.00 0.00 33 1020.0
20260502185411 68 358 5.0 12.0 0.00 0.00 0.00 32 1020.0
20260502184911 68 337 7.0 12.0 0.00 0.00 0.00 33 1020.1
20260502184411 67 355 4.0 13.0 0.00 0.00 0.00 34 1020.0
20260502183912 67 18 6.0 11.0 0.00 0.00 0.00 35 1020.0
20260502183411 67 333 7.0 13.0 0.00 0.00 0.00 35 1020.1
20260502182912 67 351 6.0 13.0 0.00 0.00 0.00 34 1020.0
20260502182411 67 13 6.0 13.0 0.00 0.00 0.00 36 1020.1
20260502181911 67 357 4.0 11.0 0.00 0.00 0.00 34 1020.2
20260502181411 67 2 5.0 13.0 0.00 0.00 0.00 33 1020.3
20260502180911 67 14 3.0 13.0 0.00 0.00 0.00 35 1020.1
20260502180411 67 3 8.0 13.0 0.00 0.00 0.00 36 1020.5
20260502170411 68 35 5.0 11.0 0.00 0.00 0.00 35 1020.7
20260502163911 66 1 5.0 9.0 0.00 0.00 0.00 34 1020.8
20260502163412 66 3 3.0 10.0 0.00 0.00 0.00 33 1020.7
20260502162911 66 10 5.0 10.0 0.00 0.00 0.00 33 1020.7
20260502162412 65 55 4.0 11.0 0.00 0.00 0.00 34 1020.7
20260502161912 65 341 8.0 11.0 0.00 0.00 0.00 34 1020.7
20260502161412 65 357 4.0 13.0 0.00 0.00 0.00 33 1020.8
20260502160911 66 13 4.0 10.0 0.00 0.00 0.00 34 1020.7
20260502160412 66 345 6.0 11.0 0.00 0.00 0.00 33 1020.7
20260502151912 64 32 2.0 9.0 0.00 0.00 0.00 37 1020.7
20260502151411 63 62 4.0 10.0 0.00 0.00 0.00 37 1020.7
20260502150912 63 20 4.0 10.0 0.00 0.00 0.00 37 1020.7
20260502150413 63 46 4.0 9.0 0.00 0.00 0.00 37 1020.7
20260502130411 55 1 2.0 6.0 0.00 0.00 0.00 58 1019.9
20260502123411 51 290 0.0 4.0 0.00 0.00 0.00 67 1019.5
20260502122911 51 129 0.0 5.0 0.00 0.00 0.00 69 1019.4
20260502122411 50 25 3.0 5.0 0.00 0.00 0.00 70 1019.4
20260502121911 49 9 1.0 4.0 0.00 0.00 0.00 73 1019.2
20260502121411 47 59 1.0 3.0 0.00 0.00 0.00 75 1019.1
20260502120911 46 342 1.0 3.0 0.00 0.00 0.00 77 1019.2
20260502120411 45 9 0.0 3.0 0.00 0.00 0.00 83 1019.1
20260502115912 43 40 1.0 5.0 0.00 0.00 0.00 83 1019.0
20260502115411 41 350 1.0 4.0 0.00 0.00 0.00 93 1019.0
20260502114911 40 339 1.0 2.0 0.00 0.00 0.00 97 1019.0
20260502114411 39 344 0.0 2.0 0.00 0.00 0.00 98 1019.0
20260502113915 39 0 0.0 2.0 0.00 0.00 0.00 97 1018.9
20260502113411 39 9 0.0 1.0 0.00 0.00 0.00 97 1018.9
20260502112911 39 0 0.0 0.0 0.00 0.00 0.00 97 1018.9
20260502112411 40 0 0.0 4.0 0.00 0.00 0.00 97 1019.0
20260502111911 39 354 1.0 4.0 0.00 0.00 0.00 97 1018.9
20260502111411 40 319 0.0 2.0 0.00 0.00 0.00 97 1019.0
20260502110911 40 0 0.0 2.0 0.00 0.00 0.00 97 1019.0
20260502110412 40 0 0.0 4.0 0.00 0.00 0.00 97 1018.9
20260502105912 40 352 1.0 2.0 0.00 0.00 0.00 98 1018.8
20260502105411 40 337 0.0 3.0 0.00 0.00 0.00 98 1018.7
20260502104912 40 330 1.0 5.0 0.00 0.00 0.00 98 1018.6
20260502104412 40 353 2.0 2.0 0.00 0.00 0.00 98 1018.6
20260502103912 40 357 1.0 2.0 0.00 0.00 0.00 97 1018.6
20260502103411 40 0 0.0 2.0 0.00 0.00 0.00 97 1018.6
20260502102911 40 137 1.0 2.0 0.00 0.00 0.00 97 1018.5
20260502102411 40 0 0.0 1.0 0.00 0.00 0.00 97 1018.5
20260502101911 40 359 0.0 2.0 0.00 0.00 0.00 96 1018.5
20260502101411 40 351 1.0 2.0 0.00 0.00 0.00 96 1018.4
20260502100911 40 351 0.0 2.0 0.00 0.00 0.00 96 1018.5
20260502100411 40 352 0.0 4.0 0.00 0.00 0.00 96 1018.5
20260502091412 41 0 0.0 0.0 0.00 0.00 0.00 95 1018.2
20260502090912 41 0 0.0 0.0 0.00 0.00 0.00 94 1018.2
20260502090412 42 0 0.0 2.0 0.00 0.00 0.00 94 1018.1
20260502071411 42 354 2.0 3.0 0.00 0.00 0.00 89 1018.2
20260502070914 42 352 2.0 2.0 0.00 0.00 0.00 89 1018.2
20260502070412 43 351 2.0 2.0 0.00 0.00 0.00 88 1018.2
20260502065912 43 345 1.0 2.0 0.00 0.00 0.00 87 1018.2
20260502065411 43 347 1.0 2.0 0.00 0.00 0.00 88 1018.3
20260502064911 44 345 1.0 2.0 0.00 0.00 0.00 88 1018.2
20260502064412 44 0 0.0 0.0 0.00 0.00 0.00 89 1018.3
20260502063911 44 0 0.0 0.0 0.00 0.00 0.00 88 1018.3
20260502063412 45 0 0.0 1.0 0.00 0.00 0.00 86 1018.4
20260502062912 45 339 0.0 2.0 0.00 0.00 0.00 85 1018.3
20260502062411 45 342 1.0 2.0 0.00 0.00 0.00 84 1018.4
20260502061911 45 348 1.0 2.0 0.00 0.00 0.00 83 1018.4
20260502061411 44 350 1.0 2.0 0.00 0.00 0.00 82 1018.4
20260502060911 44 0 0.0 2.0 0.00 0.00 0.00 81 1018.5
20260502060411 44 358 0.0 2.0 0.00 0.00 0.00 81 1018.5
20260502055911 43 0 0.0 1.0 0.00 0.00 0.00 81 1018.5
20260502055411 43 283 0.0 2.0 0.00 0.00 0.00 81 1018.5
20260502054911 43 351 1.0 2.0 0.00 0.00 0.00 81 1018.5
20260502054412 43 0 0.0 2.0 0.00 0.00 0.00 81 1018.5
20260502053912 43 0 0.0 1.0 0.00 0.00 0.00 80 1018.5
20260502053411 43 356 0.0 2.0 0.00 0.00 0.00 79 1018.5
20260502052911 43 350 2.0 2.0 0.00 0.00 0.00 79 1018.4
20260502052412 43 333 0.0 2.0 0.00 0.00 0.00 80 1018.4
20260502051911 43 355 1.0 2.0 0.00 0.00 0.00 81 1018.5
20260502051411 43 357 1.0 2.0 0.00 0.00 0.00 80 1018.4
20260502050912 44 344 0.0 2.0 0.00 0.00 0.00 81 1018.4
20260502050412 44 0 0.0 0.0 0.00 0.00 0.00 83 1018.5
20260502045911 44 0 0.0 1.0 0.00 0.00 0.00 83 1018.5
20260502045411 44 358 0.0 2.0 0.00 0.00 0.00 80 1018.5
20260502044911 44 357 0.0 2.0 0.00 0.00 0.00 80 1018.4
20260502044411 44 346 1.0 2.0 0.00 0.00 0.00 80 1018.4
20260502043911 44 347 2.0 2.0 0.00 0.00 0.00 81 1018.4
20260502043412 44 346 2.0 2.0 0.00 0.00 0.00 79 1018.4
20260502042912 44 347 2.0 2.0 0.00 0.00 0.00 79 1018.4
20260502042411 45 0 0.0 0.0 0.00 0.00 0.00 84 1018.4
20260502041911 45 0 0.0 0.0 0.00 0.00 0.00 83 1018.4
20260502041411 45 0 0.0 0.0 0.00 0.00 0.00 83 1018.5
20260502040911 46 0 0.0 0.0 0.00 0.00 0.00 81 1018.6
20260502040411 46 0 0.0 1.0 0.00 0.00 0.00 79 1018.6
20260502035911 46 352 0.0 2.0 0.00 0.00 0.00 73 1018.6
20260502035411 46 349 1.0 2.0 0.00 0.00 0.00 75 1018.6
20260502034911 46 355 1.0 2.0 0.00 0.00 0.00 75 1018.6
20260502034411 46 352 1.0 2.0 0.00 0.00 0.00 74 1018.6
20260502033911 47 323 0.0 2.0 0.00 0.00 0.00 74 1018.6
20260502033411 47 350 2.0 2.0 0.00 0.00 0.00 73 1018.7
20260502032911 47 358 2.0 2.0 0.00 0.00 0.00 74 1018.6
20260502032411 47 343 0.0 2.0 0.00 0.00 0.00 75 1018.7
20260502031911 47 335 2.0 2.0 0.00 0.00 0.00 73 1018.7
20260502031412 47 346 2.0 2.0 0.00 0.00 0.00 73 1018.7
20260502030911 47 345 1.0 2.0 0.00 0.00 0.00 72 1018.8
20260502030412 47 346 1.0 2.0 0.00 0.00 0.00 72 1018.8
20260502025911 48 358 2.0 2.0 0.00 0.00 0.00 71 1018.8
20260502025411 48 0 0.0 2.0 0.00 0.00 0.00 71 1018.8
20260502024911 48 347 0.0 1.0 0.00 0.00 0.00 71 1018.8
20260502024411 48 0 0.0 1.0 0.00 0.00 0.00 71 1018.8
20260502023911 48 0 0.0 2.0 0.00 0.00 0.00 70 1018.8
20260502023412 49 356 1.0 2.0 0.00 0.00 0.00 70 1018.7
20260502022912 49 353 1.0 2.0 0.00 0.00 0.00 70 1018.6
20260502022411 49 343 1.0 2.0 0.00 0.00 0.00 69 1018.6
20260502021911 49 359 1.0 2.0 0.00 0.00 0.00 67 1018.6
20260502021411 49 0 0.0 2.0 0.00 0.00 0.00 69 1018.6
20260502020911 49 350 1.0 2.0 0.00 0.00 0.00 69 1018.5
20260502020412 49 349 1.0 2.0 0.00 0.00 0.00 69 1018.5
20260502015911 49 338 1.0 2.0 0.00 0.00 0.00 69 1018.5
20260502015411 50 350 1.0 2.0 0.00 0.00 0.00 68 1018.5
20260502014912 50 347 2.0 2.0 0.00 0.00 0.00 69 1018.4
20260502014412 50 346 2.0 2.0 0.00 0.00 0.00 68 1018.4
20260502013911 50 352 2.0 2.0 0.00 0.00 0.00 67 1018.3
20260502013411 51 354 2.0 2.0 0.00 0.00 0.00 66 1018.3
20260502012912 51 354 2.0 2.0 0.00 0.00 0.00 66 1018.2
20260502012411 51 352 2.0 2.0 0.00 0.00 0.00 66 1018.1
20260502011912 52 346 2.0 3.0 0.00 0.00 0.00 65 1018.0
20260502011411 52 349 2.0 3.0 0.00 0.00 0.00 66 1017.9
20260502010911 53 351 2.0 3.0 0.00 0.00 0.00 65 1017.8
20260502010411 54 353 2.0 2.0 0.00 0.00 0.00 64 1017.8
20260502005911 55 351 2.0 2.0 0.00 0.00 0.00 62 1017.7
20260502005411 56 353 2.0 2.0 0.00 0.00 0.00 58 1017.6
20260502004913 57 352 2.0 3.0 0.00 0.00 0.00 56 1017.6
20260502004412 58 346 1.0 3.0 0.00 0.00 0.00 52 1017.5
20260502003911 60 351 2.0 2.0 0.00 0.00 0.00 49 1017.3
20260502003411 61 356 1.0 3.0 0.00 0.00 0.00 44 1017.2
20260502002911 61 47 0.0 2.0 0.00 0.00 0.00 39 1017.0
20260502002411 62 66 1.0 4.0 0.00 0.00 0.00 39 1016.9
20260502001912 62 108 2.0 4.0 0.00 0.00 0.00 38 1016.8
20260502001411 62 92 1.0 4.0 0.00 0.00 0.00 37 1016.7
20260502000912 62 37 2.0 4.0 0.00 0.00 0.00 38 1016.6
20260502000411 63 65 1.0 4.0 0.00 0.00 0.00 38 1016.6
20260501235911 63 31 1.0 4.0 0.00 0.00 0.00 37 1016.7
20260501235412 63 76 0.0 5.0 0.00 0.00 0.00 37 1016.6
20260501234912 63 14 3.0 6.0 0.00 0.00 0.00 37 1016.7
20260501234411 63 123 2.0 6.0 0.00 0.00 0.00 36 1016.7
20260501233911 63 114 3.0 6.0 0.00 0.00 0.00 35 1016.8
20260501233412 63 106 2.0 7.0 0.00 0.00 0.00 35 1016.9
20260501232911 63 92 2.0 8.0 0.00 0.00 0.00 36 1016.9
20260501232411 64 70 2.0 7.0 0.00 0.00 0.00 35 1016.8
20260501231911 64 56 2.0 6.0 0.00 0.00 0.00 35 1016.9
20260501231411 65 76 2.0 7.0 0.00 0.00 0.00 35 1016.8
20260501230911 65 109 4.0 7.0 0.00 0.00 0.00 34 1016.8
20260501230413 64 3 2.0 10.0 0.00 0.00 0.00 34 1016.8
20260501225913 65 87 4.0 11.0 0.00 0.00 0.00 34 1016.8
20260501225411 65 125 6.0 10.0 0.00 0.00 0.00 33 1016.8
20260501224911 65 28 4.0 8.0 0.00 0.00 0.00 33 1016.7
20260501224411 65 62 4.0 9.0 0.00 0.00 0.00 34 1016.8
20260501223912 65 65 6.0 9.0 0.00 0.00 0.00 33 1016.5
20260501223411 66 19 4.0 9.0 0.00 0.00 0.00 34 1016.6
20260501222911 66 101 3.0 7.0 0.00 0.00 0.00 32 1016.5
20260501222411 66 71 3.0 7.0 0.00 0.00 0.00 33 1016.4
20260501221913 66 12 4.0 8.0 0.00 0.00 0.00 32 1016.4
20260501221411 66 46 3.0 9.0 0.00 0.00 0.00 32 1016.4
20260501220911 66 5 6.0 11.0 0.00 0.00 0.00 31 1016.4
20260501220412 66 2 7.0 16.0 0.00 0.00 0.00 30 1016.2
20260501215911 67 20 5.0 10.0 0.00 0.00 0.00 29 1016.2
20260501215412 67 49 3.0 10.0 0.00 0.00 0.00 30 1016.1
20260501214911 67 86 3.0 10.0 0.00 0.00 0.00 30 1016.1
20260501214412 67 6 4.0 10.0 0.00 0.00 0.00 31 1016.1
20260501213911 67 1 4.0 11.0 0.00 0.00 0.00 32 1016.0
20260501213411 67 7 7.0 14.0 0.00 0.00 0.00 31 1016.1
20260501212911 67 24 4.0 9.0 0.00 0.00 0.00 31 1015.9
20260501212411 67 61 2.0 11.0 0.00 0.00 0.00 32 1015.9